EW1336 Weather Reports


Display with metric or nautical units.
time (UTC)temp
F
wind
direction
speed
MPH
gust
MPH
rain 1hr
in
rain 24hr
in
rain mn
in
humidity
%
barometer
mb
20260905230006 59 245 0.0 4.0 0.00 0.00 0.00 49 1010.4
20260905224505 59 260 0.0 2.0 0.00 0.00 0.00 52 1010.6
20260905223011 59 283 0.0 7.0 0.00 0.00 0.00 50 1010.7
20260905221501 58 316 0.0 5.0 0.00 0.00 0.00 48 1010.8
20260905220100 58 274 0.0 3.0 0.00 0.00 0.00 50 1010.8
20260905214558 57 266 0.0 4.0 0.00 0.00 0.00 51 1010.8
20260905213059 58 245 0.0 6.0 0.00 0.00 0.00 48 1011.0
20260905211555 59 210 0.0 4.0 0.00 0.00 0.00 47 1011.2
20260905210056 60 269 0.0 3.0 0.00 0.00 0.00 48 1011.3
20260905204550 59 273 0.0 3.0 0.00 0.00 0.00 50 1011.4
20260905203056 59 269 0.0 6.0 0.00 0.00 0.00 51 1011.5
20260905201557 59 262 0.0 4.0 0.00 0.00 0.00 50 1011.6
20260905200046 58 265 1.0 7.0 0.00 0.00 0.00 48 1011.6
20260905194541 57 253 0.0 3.0 0.00 0.00 0.00 53 1011.5
20260905193040 57 271 0.0 3.0 0.00 0.00 0.00 53 1011.8
20260905191538 55 273 0.0 2.0 0.00 0.00 0.00 58 1011.9
20260905190037 55 291 0.0 4.0 0.00 0.00 0.00 58 1012.2
20260905184545 54 281 0.0 3.0 0.00 0.00 0.00 60 1012.2
20260905183043 54 269 0.0 5.0 0.00 0.00 0.00 60 1012.1
20260905181536 54 262 0.0 2.0 0.00 0.00 0.00 57 1012.2
20260905180033 54 5 0.0 3.0 0.00 0.00 0.00 60 1012.1
20260905174529 53 245 0.0 2.0 0.00 0.00 0.00 62 1012.0
20260905173028 51 281 0.0 4.0 0.00 0.00 0.00 61 1012.1
20260905171524 51 238 0.0 3.0 0.00 0.00 0.00 66 1012.0
20260905170020 49 269 0.0 1.0 0.00 0.00 0.00 69 1011.9
20260905164520 49 283 0.0 4.0 0.00 0.00 0.00 70 1011.9
20260905163018 48 203 0.0 1.0 0.00 0.00 0.00 74 1012.0
20260905161518 47 257 0.0 0.0 0.00 0.00 0.00 75 1012.0
20260905160015 47 198 0.0 1.0 0.00 0.00 0.00 75 1012.0
20260905154515 47 267 0.0 1.0 0.00 0.00 0.00 74 1011.8
20260905153019 47 270 0.0 2.0 0.00 0.00 0.00 74 1011.8
20260905151519 48 266 0.0 1.0 0.00 0.00 0.00 73 1011.9
20260905150019 47 201 0.0 2.0 0.00 0.00 0.00 76 1012.1
20260905144517 46 225 0.0 0.0 0.00 0.00 0.00 77 1012.1
20260905143009 45 257 0.0 0.0 0.00 0.00 0.00 79 1012.0
20260905141504 45 257 0.0 0.0 0.00 0.00 0.00 78 1012.0
20260905140004 45 242 0.0 0.0 0.00 0.01 0.00 79 1011.9
20260905134503 45 243 0.0 0.0 0.00 0.01 0.00 79 1011.8
20260905133003 45 210 0.0 2.0 0.00 0.01 0.00 78 1011.5
20260905131611 45 212 0.0 0.0 0.00 0.01 0.00 78 1011.3
20260905130057 45 243 0.0 0.0 0.00 0.01 0.00 78 1011.3
20260905124555 45 238 0.0 1.0 0.00 0.01 0.00 77 1011.3
20260905123102 45 271 0.0 1.0 0.00 0.01 0.00 75 1011.5
20260905121554 45 276 0.0 1.0 0.00 0.01 0.00 75 1011.6
20260905120053 45 270 0.0 2.0 0.00 0.01 0.00 74 1011.7
20260905114550 45 225 0.0 0.0 0.00 0.01 0.00 76 1011.8
20260905113052 45 214 0.0 0.0 0.00 0.01 0.00 76 1011.8
20260905111553 44 257 0.0 0.0 0.00 0.01 0.00 79 1011.9
20260905110048 44 248 0.0 0.0 0.00 0.01 0.00 79 1012.0
20260905104602 43 126 0.0 0.0 0.00 0.01 0.00 81 1011.9
20260905103046 43 131 0.0 0.0 0.00 0.01 0.00 81 1011.9
20260905101547 43 131 0.0 0.0 0.00 0.01 0.00 81 1011.9
20260905100045 42 119 0.0 1.0 0.00 0.01 0.00 82 1012.1
20260905094543 42 60 0.0 0.0 0.00 0.01 0.00 82 1012.1
20260905093044 42 53 0.0 0.0 0.00 0.01 0.00 82 1012.0
20260905091543 43 54 0.0 0.0 0.00 0.01 0.00 81 1011.9
20260905090059 43 54 0.0 0.0 0.00 0.01 0.00 81 1012.1
20260905084536 44 54 0.0 0.0 0.00 0.01 0.00 80 1012.1
20260905083035 45 276 0.0 0.0 0.00 0.01 0.00 79 1012.1
20260905081536 45 274 0.0 0.0 0.00 0.01 0.00 79 1012.1
20260905080033 45 274 0.0 0.0 0.00 0.01 0.00 78 1012.2
20260905074533 45 273 0.0 1.0 0.00 0.01 0.00 78 1012.1
20260905073034 45 273 0.0 0.0 0.00 0.01 0.00 78 1012.0
20260905071530 44 263 0.0 1.0 0.00 0.01 0.00 78 1011.9
20260905070027 44 281 0.0 1.0 0.00 0.01 0.00 79 1011.8
20260905064530 44 233 0.0 0.0 0.00 0.01 0.01 80 1011.6
20260905063025 43 245 0.0 0.0 0.00 0.01 0.01 81 1011.5
20260905061535 43 158 0.0 0.0 0.00 0.01 0.01 82 1011.4
20260905060023 43 158 0.0 0.0 0.00 0.01 0.01 82 1011.4
20260905054530 43 158 0.0 0.0 0.00 0.01 0.01 82 1011.2
20260905053022 43 158 0.0 0.0 0.00 0.01 0.01 82 1011.3
20260905051522 43 152 0.0 0.0 0.00 0.01 0.01 82 1011.1
20260905050022 43 152 0.0 0.0 0.00 0.01 0.01 81 1011.0
20260905044526 44 236 0.0 0.0 0.00 0.01 0.01 80 1011.1
20260905043019 44 238 0.0 0.0 0.00 0.01 0.01 79 1011.0
20260905041525 44 242 0.0 0.0 0.00 0.01 0.01 79 1011.0
20260905040017 44 256 0.0 0.0 0.00 0.01 0.01 80 1010.7
20260905034516 44 256 0.0 0.0 0.00 0.01 0.01 79 1010.5
20260905033013 45 245 0.0 1.0 0.00 0.01 0.01 79 1010.3
20260905031513 45 269 0.0 1.0 0.00 0.01 0.01 79 1010.1
20260905030013 45 271 0.0 1.0 0.00 0.01 0.01 80 1010.0
20260905024511 46 248 0.0 1.0 0.00 0.01 0.01 78 1010.0
20260905023013 46 273 0.0 1.0 0.00 0.01 0.01 76 1010.0
20260905021516 47 255 0.0 1.0 0.00 0.01 0.01 75 1010.0
20260905020009 47 274 0.0 2.0 0.00 0.01 0.01 75 1009.8
20260905014508 48 266 0.0 2.0 0.00 0.01 0.01 72 1009.7
20260905013007 48 278 0.0 5.0 0.00 0.01 0.01 72 1009.5
20260905011508 49 250 0.0 3.0 0.00 0.01 0.01 71 1009.5
20260905010006 50 274 0.0 4.0 0.00 0.01 0.01 71 1009.6
20260905004506 51 267 0.0 3.0 0.00 0.01 0.01 69 1009.7
20260905003006 50 288 0.0 2.0 0.00 0.01 0.01 72 1009.6
20260905001505 51 278 0.0 4.0 0.00 0.01 0.01 71 1009.7
20260905000004 51 340 1.0 4.0 0.00 0.01 0.01 68 1009.7
20260904234504 51 274 0.0 3.0 0.00 0.01 0.01 69 1009.7
20260904233003 53 259 0.0 5.0 0.00 0.01 0.01 66 1009.5
20260904231502 53 249 0.0 5.0 0.00 0.01 0.01 67 1009.4